Location: Newark
(45.5167°N, 11.1667°E)
Time: 02:53:37
(UTC+00:00)

Explorer 7 - Pass Details

Date: 22 December 2019
Orbit: 485 x 679 km, 50.3° (Epoch: 17 January)

Event Time Altitude Azimuth Distance (km) Brightness Sun altitude
Rises 09:08:24 0° 184° (S) 2,782 11.4 15.4°
Reaches altitude 10° 09:11:43 10° 157° (SSE) 1,937 12.2 15.7°
Maximum altitude 09:13:47 13° 129° (SE) 1,768 11.0 15.8°
Drops below altitude 10° 09:15:55 10° 101° (E) 2,000 10.3 16.0°
Sets 09:19:27 0° 75° (ENE) 2,956 10.7 16.3°
